Time,TemperatureF,DewpointF,PressureIn,WindDirection,WindDirectionDegrees,WindSpeedMPH,WindSpeedGustMPH,Humidity,HourlyPrecipIn,Conditions,Clouds,dailyrainin,SoftwareType,DateUTC
2013-09-08 00:12:00,58.0,51.0,30.04,East,86,0.0,0.0,77,0.00,,,0.00,,2013-09-08 07:12:00,
2013-09-08 00:23:00,58.0,50.0,30.04,East,87,0.0,0.0,75,0.00,,,0.00,,2013-09-08 07:23:00,
2013-09-08 00:52:00,56.0,49.0,30.04,East,87,0.0,0.0,78,0.00,,,0.00,,2013-09-08 07:52:00,
2013-09-08 01:22:00,55.0,49.0,30.04,East,87,0.0,0.0,81,0.00,,,0.00,,2013-09-08 08:22:00,
2013-09-08 01:52:00,54.0,49.0,30.05,East,87,0.0,0.0,82,0.00,,,0.00,,2013-09-08 08:52:00,
2013-09-08 02:22:00,54.0,49.0,30.05,East,87,0.0,0.0,83,0.00,,,0.00,,2013-09-08 09:22:00,
2013-09-08 02:54:00,53.0,48.0,30.05,East,87,0.0,0.0,84,0.00,,,0.00,,2013-09-08 09:54:00,
2013-09-08 03:12:00,53.0,49.0,30.05,East,87,0.0,0.0,85,0.00,,,0.00,,2013-09-08 10:12:00,
2013-09-08 03:23:00,53.0,49.0,30.05,East,88,0.0,0.0,85,0.00,,,0.00,,2013-09-08 10:23:00,
2013-09-08 03:53:00,52.0,48.0,30.05,East,87,0.0,0.0,86,0.00,,,0.00,,2013-09-08 10:53:00,
2013-09-08 04:11:00,52.0,48.0,30.05,East,87,0.0,0.0,87,0.00,,,0.00,,2013-09-08 11:11:00,
2013-09-08 04:21:00,52.0,48.0,30.06,East,87,0.0,0.0,86,0.00,,,0.00,,2013-09-08 11:21:00,
2013-09-08 04:52:00,52.0,48.0,30.06,East,87,0.0,0.0,87,0.00,,,0.00,,2013-09-08 11:52:00,
2013-09-08 05:12:00,51.0,47.0,30.06,East,87,0.0,0.0,87,0.00,,,0.00,,2013-09-08 12:12:00,
2013-09-08 05:21:00,50.0,46.0,30.06,East,87,0.0,0.0,87,0.00,,,0.00,,2013-09-08 12:21:00,
2013-09-08 05:52:00,50.0,47.0,30.06,East,87,0.0,0.0,88,0.00,,,0.00,,2013-09-08 12:52:00,
2013-09-08 06:22:00,49.0,46.0,30.06,East,87,0.0,0.0,90,0.00,,,0.00,,2013-09-08 13:22:00,
2013-09-08 06:52:00,49.0,46.0,30.07,East,87,0.0,0.0,90,0.00,,,0.00,,2013-09-08 13:52:00,
2013-09-08 07:11:00,49.0,46.0,30.07,East,87,0.0,0.0,91,0.00,,,0.00,,2013-09-08 14:11:00,
2013-09-08 07:22:00,50.0,47.0,30.08,SSE,156,0.0,1.0,91,0.00,,,0.00,,2013-09-08 14:22:00,
2013-09-08 07:52:00,54.0,49.0,30.08,SSE,156,0.0,1.0,84,0.00,,,0.00,,2013-09-08 14:52:00,
2013-09-08 08:23:00,56.0,50.0,30.09,WSW,251,0.0,1.0,79,0.00,,,0.00,,2013-09-08 15:23:00,
2013-09-08 08:54:00,58.0,51.0,30.09,North,350,0.0,1.0,78,0.00,,,0.00,,2013-09-08 15:54:00,
2013-09-08 09:23:00,59.0,51.0,30.09,NW,315,0.0,2.0,76,0.00,,,0.00,,2013-09-08 16:23:00,
2013-09-08 09:53:00,60.0,52.0,30.09,NNE,19,1.0,3.0,74,0.00,,,0.00,,2013-09-08 16:53:00,
2013-09-08 10:23:00,63.0,53.0,30.09,NW,304,3.0,5.0,70,0.00,,,0.00,,2013-09-08 17:23:00,
2013-09-08 10:53:00,63.0,52.0,30.09,NW,307,2.0,5.0,68,0.00,,,0.00,,2013-09-08 17:53:00,
2013-09-08 11:21:00,66.0,53.0,30.09,NNW,347,1.0,5.0,64,0.00,,,0.00,,2013-09-08 18:21:00,
2013-09-08 11:52:00,68.0,53.0,30.09,NW,309,4.0,8.0,59,0.00,,,0.00,,2013-09-08 18:52:00,
2013-09-08 12:11:00,69.0,53.0,30.09,NNE,24,3.0,7.0,57,0.00,,,0.00,,2013-09-08 19:11:00,
2013-09-08 12:21:00,70.0,53.0,30.09,NNW,335,3.0,9.0,54,0.00,,,0.00,,2013-09-08 19:21:00,
2013-09-08 12:52:00,71.0,53.0,30.09,East,96,4.0,8.0,53,0.00,,,0.00,,2013-09-08 19:52:00,
2013-09-08 13:22:00,72.0,52.0,30.08,ENE,61,4.0,10.0,50,0.00,,,0.00,,2013-09-08 20:22:00,
2013-09-08 13:53:00,73.0,52.0,30.08,NNE,15,5.0,9.0,48,0.00,,,0.00,,2013-09-08 20:53:00,
2013-09-08 14:21:00,74.0,52.0,30.07,NNE,19,3.0,8.0,46,0.00,,,0.00,,2013-09-08 21:21:00,
2013-09-08 14:54:00,75.0,52.0,30.06,NE,53,4.0,10.0,44,0.00,,,0.00,,2013-09-08 21:54:00,
2013-09-08 15:24:00,75.0,50.0,30.05,North,351,4.0,11.0,42,0.00,,,0.00,,2013-09-08 22:24:00,
2013-09-08 15:53:00,76.0,51.0,30.05,NNE,27,7.0,11.0,42,0.00,,,0.00,,2013-09-08 22:53:00,
2013-09-08 16:22:00,76.0,50.0,30.04,NNE,16,6.0,11.0,40,0.00,,,0.00,,2013-09-08 23:22:00,
2013-09-08 16:52:00,76.0,49.0,30.04,North,9,4.0,11.0,39,0.00,,,0.00,,2013-09-08 23:52:00,
2013-09-08 17:11:00,76.0,49.0,30.04,ENE,72,5.0,9.0,39,0.00,,,0.00,,2013-09-09 00:11:00,
2013-09-08 17:21:00,77.0,51.0,30.03,NE,38,4.0,10.0,40,0.00,,,0.00,,2013-09-09 00:21:00,
2013-09-08 17:52:00,77.0,48.0,30.03,North,3,5.0,12.0,36,0.00,,,0.00,,2013-09-09 00:52:00,
2013-09-08 18:21:00,76.0,48.0,30.03,NNE,27,5.0,9.0,37,0.00,,,0.00,,2013-09-09 01:21:00,
2013-09-08 18:52:00,75.0,47.0,30.03,North,352,2.0,6.0,37,0.00,,,0.00,,2013-09-09 01:52:00,
2013-09-08 19:21:00,73.0,49.0,30.03,NE,40,2.0,5.0,43,0.00,,,0.00,,2013-09-09 02:21:00,
2013-09-08 19:42:00,72.0,50.0,30.02,NE,44,1.0,3.0,46,0.00,,,0.00,,2013-09-09 02:42:00,
2013-09-08 19:52:00,70.0,49.0,30.03,NE,53,0.0,1.0,48,0.00,,,0.00,,2013-09-09 02:52:00,
2013-09-08 20:21:00,68.0,49.0,30.03,NE,48,0.0,1.0,51,0.00,,,0.00,,2013-09-09 03:21:00,
2013-09-08 20:55:00,65.0,49.0,30.04,ENE,70,0.0,0.0,57,0.00,,,0.00,,2013-09-09 03:55:00,
2013-09-08 21:14:00,63.0,49.0,30.04,ENE,70,0.0,0.0,60,0.00,,,0.00,,2013-09-09 04:14:00,
2013-09-08 21:24:00,62.0,48.0,30.04,East,82,0.0,1.0,61,0.00,,,0.00,,2013-09-09 04:24:00,
2013-09-08 21:54:00,62.0,48.0,30.04,SSE,152,0.0,2.0,60,0.00,,,0.00,,2013-09-09 04:54:00,
2013-09-08 22:23:00,60.0,47.0,30.04,SSE,151,0.0,0.0,63,0.00,,,0.00,,2013-09-09 05:23:00,
2013-09-08 22:53:00,59.0,48.0,30.05,East,94,0.0,1.0,67,0.00,,,0.00,,2013-09-09 05:53:00,
2013-09-08 23:21:00,58.0,47.0,30.05,East,94,0.0,0.0,68,0.00,,,0.00,,2013-09-09 06:21:00,
2013-09-08 23:52:00,57.0,47.0,30.05,SSE,150,0.0,1.0,69,0.00,,,0.00,,2013-09-09 06:52:00,